Regional Weather Roundup
Issued by NWS

Home | Current Version | Previous Version | Graphics & Text | Print | Product List | Glossary Off
Versions: 1 2 3 4 5 6 7 8 9 10 11 12 13 14 15 16 17 18 19 20 21 22 23 24 25 26 27 28 29 30 31 32 33 34 35 36 37 38 39 40 41 42 43 44 45 46 47 48 49 50

000
ASUS43 KMPX 212310
RWRMN
WEATHER ROUNDUP FOR MINNESOTA
NATIONAL WEATHER SERVICE TWIN CITIES/CHANHASSEN MN
600 PM CDT TUE OCT 21 2014


NOTE: "FAIR" INDICATES FEW OR NO CLOUDS BELOW 12,000 FEET WITH NO
SIGNIFICANT WEATHER AND/OR OBSTRUCTIONS TO VISIBILITY. N/A MEANS
CURRENT SKY AND/OR WEATHER CONDITIONS ARE NOT AVAILABLE.

MNZ060>063-068>070-220000-
   Twin Cities Metro

CITY           SKY/WX    TMP DP  RH WIND       PRES   REMARKS
TWIN CITIES    CLEAR     55  39  54 SE13      30.14R
ST PAUL        CLEAR     54  39  57 SE13      30.16R
CRYSTAL        CLEAR     56  39  53 SE12      30.13R
BLAINE         CLEAR     57  39  51 SE12      30.14R
LAKEVILLE      CLEAR     54  41  62 SE8       30.14R
EDEN PRAIRIE   CLEAR     56  41  57 SE12      30.12S
SOUTH ST PAUL  CLEAR     56  39  53 SE6       30.15R
LAKE ELMO      FAIR      54  39  58 SE6       30.16S
$$
MNZ001>005-007-008-013>017-022>024-027-028-220000-
   Northwest Minnesota

CITY           SKY/WX    TMP DP  RH WIND       PRES   REMARKS
BEMIDJI        CLEAR     53  37  54 SE17G23   30.02S
HALLOCK        CLEAR     63  39  42 SE21      29.85S
ROSEAU         CLEAR     55  41  58 SE14      29.94S
WARROAD        CLEAR     54  41  62 SE16      29.96F
THIEF RVR FALL CLEAR     59  39  47 SE20      29.92S
CROOKSTON      CLEAR     61  41  48 S22       29.90S
FOSSTON        CLEAR     57  37  47 SE13G20   29.95F
DETROIT LAKES  CLEAR     55  41  58 SE18G28   29.99S
MOORHEAD       CLEAR     63  39  42 SE18G32   29.92S
PARK RAPIDS    CLEAR     55  38  52 SE18G25   30.04R
MAHNOMEN       FAIR      57  39  52 SE18G25   29.95S
$$
MNZ006-009>011-018-025>026-220000-
   North Central Minnesota

CITY           SKY/WX    TMP DP  RH WIND       PRES   REMARKS
BAUDETTE       CLEAR     52  36  54 SE8G21    30.01F
FLAG ISLAND    CLEAR     52  39  62 SE20      29.97F
INTL FALLS     CLEAR     45  35  68 SE12      30.08F
WASKISH        CLEAR     52  39  62 SE13G20   30.03F
BIG FORK       CLEAR     48  36  61 SE9G20    30.09F
LONGVILLE      CLEAR     54  37  54 SE8       30.08R
GRAND RAPIDS   CLEAR     48  34  57 SE8       30.11S
CRANE LAKE     CLEAR     41  34  75 SE3       30.16S
ORR            CLEAR     45  32  61 SE9       30.11S
COOK           CLEAR     43  36  75 SE6       30.15S
WALKER         FAIR      52  37  56 SE8G17    30.05S
$$
MNZ012-019>021-037-220000-
   Northeast Minnesota

CITY           SKY/WX    TMP DP  RH WIND       PRES   REMARKS
DULUTH         PTCLDY    42  35  76 E13       30.17F
ELY            CLEAR     37  34  87 SE10      30.18F
HIBBING        CLEAR     44  34  67 SE12      30.15S
EVELETH        CLEAR     43  34  70 SE8       30.17S
DULUTH HARBOR  CLEAR     46  41  81 NE22      30.20S
TWO HARBORS    PTCLDY    45  28  53 E10       30.19F
SILVER BAY     MOCLDY    41  36  81 NE9       30.21F
GRAND MARAIS     N/A     42  34  73 E8        30.26F
G MARAIS ARPRT CLEAR     34  28  80 E3        30.23F
$$
MNZ029>031-032-039>041-046>048-054>057-064-220000-
   West Central Minnesota

CITY           SKY/WX    TMP DP  RH WIND       PRES   REMARKS
FERGUS FALLS   CLEAR     61  37  41 SE16G25   29.98S
WHEATON        CLEAR     63  41  45 SE21      29.96R
MORRIS         CLEAR     63  43  48 SE20G25   29.98S
ALEXANDRIA     CLEAR     57  41  55 SE13G22   30.04F
ELBOW LAKE     FAIR      59  41  51 SE21G26   29.98S
WADENA         CLEAR     54  39  58 SE14G20   30.03F
GLENWOOD       CLEAR     57  41  54 SE13      30.05S
APPLETON       CLEAR     66  39  37 SE16      29.98S
BENSON         CLEAR     63  43  48 S15G22    30.01S
ORTONVILLE     CLEAR     66  39  37 SE16G24   29.95S
MADISON        CLEAR     70  41  35 SE15      29.97S
WILLMAR        FAIR      63  39  42 SE14      30.06S
$$
MNZ033>034-036-042>043-049>051-058-059-220000-
   Central Minnesota

CITY           SKY/WX    TMP DP  RH WIND       PRES   REMARKS
ST CLOUD       CLEAR     57  39  51 SE10      30.11S
SAUK CENTRE    FAIR      56  41  58 SE13G18   30.06F
PAYNESVILLE    CLEAR     55  40  56 E15       30.08S
AITKIN         CLEAR     55  37  50 SE8       30.10S
PINE RIVER     CLEAR     52  39  62 SE12G18   30.11R
BRAINERD       CLEAR     52  38  58 SE9       30.10S
STAPLES        CLEAR     54  37  54 SE10G20   30.06S
LONG PRAIRIE   FAIR      54  37  54 E12G23    30.07S
LITTLE FALLS   CLEAR     54  36  50 SE10G17   30.10R
LITCHFIELD     CLEAR     59  43  55 SE10G16   30.09S
BUFFALO        CLEAR     56  40  54 E9        30.13S
MAPLE LAKE     CLEAR     56  43  60 E8        30.12S
$$
MNZ037-044-045-052-053-220000-
   East Central Minnesota

CITY           SKY/WX    TMP DP  RH WIND       PRES   REMARKS
PRINCETON      CLEAR     55  39  54 E7        30.13S
MORA           CLEAR     52  36  54 SE6       30.16R
CAMBRIDGE      CLEAR     55  39  54 SE6       30.13R
RUSH CITY      PTCLDY    53  38  57 SE6       30.15R
MOOSE LAKE     CLEAR     52  34  50 E5        30.13S
HINCKLEY       FAIR      54  36  50 SE9       30.15R
CLOQUET        CLEAR     43  36  75 E8        30.17S
MCGREGOR       CLEAR     52  36  54 SE9       30.14R
$$
MNZ071>073-080-081-089-090-097-098-220000-
   Southwest Minnesota

CITY           SKY/WX    TMP DP  RH WIND       PRES   REMARKS
MONTEVIDEO     CLEAR     64  41  42 S15       30.01S
GRANITE FALLS  CLEAR     65  40  39 E16G24    30.02F
CANBY          CLEAR     69  42  37 SE10      29.98R
MARSHALL       CLEAR     66  41  39 SE15      29.99S
REDWOOD FALLS  CLEAR     64  40  41 SE16      30.04S
OLIVIA         CLEAR     63  37  39 SE13      30.05R
PIPESTONE      CLEAR     70  39  32 S13       29.99F
WINDOM         CLEAR     64  39  39 SE10      30.06S
WORTHINGTON    CLEAR     64  39  39 SE12      30.04F
JACKSON        CLEAR     63  37  39 SE9       30.07S
TRACY          CLEAR     66  42  41 SE15G21   30.02S
SLAYTON        CLEAR     66  38  35 SE13      30.03S
$$
MNZ065>067-074>077-082>085-091>093-220000-
   South Central Minnesota

CITY           SKY/WX    TMP DP  RH WIND       PRES   REMARKS
MANKATO        CLEAR     59  37  44 SE12      30.11S
NEW ULM        CLEAR     61  43  51 SE12G17   30.08S
ST JAMES       CLEAR     63  39  42 SE13      30.09S
FAIRMONT       CLEAR     61  37  41 SE14      30.09S
GLENCOE        CLEAR     60  43  54 SE8       30.10R
FARIBAULT      CLEAR     57  43  58 E10       30.14R
OWATONNA       CLEAR     57  39  51 SE9       30.14R
WASECA         CLEAR     55  34  44 SE9       30.14R
ALBERT LEA     CLEAR     57  41  54 SE10      30.13S
$$
MNZ078>079-086>088-094>096-220000-
   Southeast Minnesota

CITY           SKY/WX    TMP DP  RH WIND       PRES   REMARKS
ROCHESTER      CLEAR     51  40  65 SE9       30.17S
RED WING       CLEAR     55  37  50 SE9       30.16R
STANTON        CLEAR     56  39  53 SE7       30.14R
DODGE CENTER   CLEAR     54  41  62 SE8       30.15S
WINONA         CLEAR     52  37  58 SE5       30.19S
AUSTIN         CLEAR     55  39  54 SE6       30.15R
PRESTON        CLEAR     53  38  57 SE7       30.18R
$$
ABBREVIATIONS USED IN REMARKS
   TC - TEMPERATURES IN CELSIUS
  WCI - WIND CHILL INDEX
   HX - HEAT INDEX
  VSB - VISIBILITY
$$



USA.gov is the U.S. government's official web portal to all federal, state and local government web resources and services.